Starlink 31631

operational
NORAD ID: 59459 Int'l Des: 2024-068 Owner: SPXS Country: US Constellation: starlink
LEOCIRCULAR

Starlink 31631について

説明を読み込み中...

リアルタイム位置

3D地球を読み込み中...

次回通過

高度履歴

Altitude vs Time

uPlot chart will show altitude changes over time

軌道要素

1 59459U 24068E 26033.95350794 -.00006643 00000-0 -23182-3 0 9998
2 59459 43.0008 226.9402 0001453 276.8001 83.2685 15.27614697103252
Epoch: Feb 2, 2026 • Age: 14 hours

現在のステータス

高度 483.6 km
速度 7.63 km/s
衛星直下点 27.08°N, 74.94°W
打ち上げ日 Apr 10, 2024
運用期間 1.8 years
タイプ internet

技術仕様

分類 Payload
質量 730.00 kg
乾燥質量 700.00 kg
総質量 730.00 kg
長さ 0.30 m
直径 4.10 m
スパン 29.00 m
形状 Box + pan
製造者 SPXS
バスタイプ Starlink V2M
フェーズステータス In Orbit
所有者/国 SPXS/US

大規模コンステレーション

Loading constellations...